^^
B2 Weather Station Historical Data
Daily Summary for December 3, 2018 Units:  English    Metric   Both
Daily Weekly Monthly Yearly Custom
  High: Low: Average:
Temperature: 36.2 °F 29.6 °F 33.3 °F
Dew Point: 34.4 °F 26.1 °F 30.6 °F
Humidity: 95% 84% 90%
Wind Speed: 19.6mph 2mph 9.2mph
Wind Gust: 13.3mph - -
Wind- - NW
Pressure: 30.23 in 29.75 in -
Precipitation: 0.02 in    
Historical Graphs
 
 
Tabular Data for December 3, 2018
Time Temperature Dew Point Pressure Wind Wind Speed Wind Gust Humidity Rainfall Rate (Hourly) solar
00:04 35.3 °F 33.5 °F 29.75 in NNW 7 mph 6 mph 93% 0 in 0.00 W/m2
00:09 35.3 °F 33.5 °F 29.75 in WNW 5.8 mph 3.1 mph 93% 0 in 0.00 W/m2
00:14 35.2 °F 33.4 °F 29.76 in NW 3.5 mph 2.8 mph 93% 0 in 0.00 W/m2
00:19 35.2 °F 33.4 °F 29.76 in NW 5.8 mph 4.3 mph 93% 0 in 0.00 W/m2
00:24 35.2 °F 33.4 °F 29.76 in WNW 5 mph 3.8 mph 93% 0 in 0.00 W/m2
00:29 35.1 °F 33.3 °F 29.76 in NNW 4.6 mph 3.4 mph 93% 0 in 0.00 W/m2
00:34 35 °F 33.2 °F 29.76 in NW 6.9 mph 4.1 mph 93% 0 in 0.00 W/m2
00:39 34.9 °F 33.3 °F 29.76 in NW 6.9 mph 3.9 mph 94% 0 in 0.00 W/m2
00:44 34.9 °F 33.3 °F 29.77 in WNW 6.9 mph 2.5 mph 94% 0 in 0.00 W/m2
00:49 34.9 °F 33.3 °F 29.77 in NW 5.8 mph 3.6 mph 94% 0 in 0.00 W/m2
00:54 34.9 °F 33.3 °F 29.77 in WNW 5.8 mph 2.1 mph 94% 0 in 0.00 W/m2
00:59 34.9 °F 33.3 °F 29.78 in WNW 5.8 mph 2.5 mph 94% 0 in 0.00 W/m2
01:04 34.9 °F 33.3 °F 29.78 in West 7 mph 2.7 mph 94% 0 in 0.00 W/m2
01:09 35 °F 33.4 °F 29.78 in West 4 mph 1.3 mph 94% 0 in 0.00 W/m2
01:14 35 °F 33.4 °F 29.79 in NW 4.6 mph 1 mph 94% 0 in 0.00 W/m2
01:19 35 °F 33.4 °F 29.79 in NW 4.6 mph 3.2 mph 94% 0 in 0.00 W/m2
01:24 35 °F 33.4 °F 29.79 in NNW 5 mph 3.6 mph 94% 0 in 0.00 W/m2
01:29 35 °F 33.4 °F 29.79 in WNW 6 mph 2.2 mph 94% 0 in 0.00 W/m2
01:34 34.9 °F 33.3 °F 29.80 in NW 3.5 mph 1.8 mph 94% 0 in 0.00 W/m2
01:39 35 °F 33.4 °F 29.80 in West 4.6 mph 1.6 mph 94% 0 in 0.00 W/m2
01:44 35 °F 33.4 °F 29.80 in NW 2 mph 1.2 mph 94% 0 in 0.00 W/m2
01:49 35 °F 33.4 °F 29.81 in WNW 3.5 mph 2.7 mph 94% 0 in 0.00 W/m2
01:54 35 °F 33.4 °F 29.81 in WNW 3.5 mph 1.2 mph 94% 0 in 0.00 W/m2
01:59 35 °F 33.4 °F 29.81 in NW 3.5 mph 1.6 mph 94% 0 in 0.00 W/m2
02:04 35 °F 33.4 °F 29.81 in West 5.8 mph 2.3 mph 94% 0 in 0.00 W/m2
02:09 35 °F 33.4 °F 29.82 in West 3.5 mph 2.1 mph 94% 0 in 0.00 W/m2
02:14 35.1 °F 33.3 °F 29.81 in NW 3.5 mph 1.7 mph 93% 0 in 0.00 W/m2
02:19 35.1 °F 33.3 °F 29.82 in NW 5.8 mph 2.6 mph 93% 0 in 0.00 W/m2
02:24 35 °F 33.2 °F 29.81 in NW 3.5 mph 2.3 mph 93% 0 in 0.00 W/m2
02:29 35 °F 33.2 °F 29.81 in NNW 5.8 mph 3.4 mph 93% 0 in 0.00 W/m2
02:34 35 °F 33.2 °F 29.81 in NW 8.1 mph 2.9 mph 93% 0 in 0.00 W/m2
02:39 35 °F 33.2 °F 29.81 in NW 6 mph 3.8 mph 93% 0 in 0.00 W/m2
02:44 35 °F 33.2 °F 29.82 in NNW 5 mph 4.7 mph 93% 0 in 0.00 W/m2
02:49 35 °F 33.2 °F 29.82 in NW 6.9 mph 4.1 mph 93% 0 in 0.00 W/m2
02:54 35 °F 32.9 °F 29.82 in NW 5.8 mph 2.5 mph 92% 0 in 0.00 W/m2
02:59 35 °F 32.9 °F 29.82 in NNW 8.1 mph 4.2 mph 92% 0 in 0.00 W/m2
03:04 35 °F 32.9 °F 29.82 in NW 4.6 mph 2.8 mph 92% 0 in 0.00 W/m2
03:09 35 °F 32.9 °F 29.83 in WNW 5 mph 1.8 mph 92% 0 in 0.00 W/m2
03:14 35 °F 32.9 °F 29.83 in WNW 5.8 mph 2.4 mph 92% 0 in 0.00 W/m2
03:19 35 °F 32.9 °F 29.83 in NW 6 mph 4.2 mph 92% 0 in 0.00 W/m2
03:24 35.1 °F 33 °F 29.83 in NW 6.9 mph 2.3 mph 92% 0 in 0.00 W/m2
03:29 35.1 °F 32.7 °F 29.83 in WNW 3.5 mph 2.8 mph 91% 0 in 0.00 W/m2
03:34 35.1 °F 32.7 °F 29.84 in NW 8 mph 2.9 mph 91% 0 in 0.00 W/m2
03:39 35 °F 32.6 °F 29.84 in NW 5.8 mph 2.8 mph 91% 0 in 0.00 W/m2
03:44 35 °F 32.6 °F 29.84 in NW 6.9 mph 2.8 mph 91% 0 in 0.00 W/m2
03:49 35 °F 32.6 °F 29.84 in NW 8.1 mph 4 mph 91% 0 in 0.00 W/m2
03:54 34.9 °F 32.5 °F 29.84 in NW 5.8 mph 3.8 mph 91% 0 in 0.00 W/m2
03:59 34.8 °F 32.4 °F 29.85 in NW 5.8 mph 3.5 mph 91% 0 in 0.00 W/m2
04:04 34.7 °F 32.3 °F 29.85 in NW 8.1 mph 3.5 mph 91% 0 in 0.00 W/m2
04:09 34.6 °F 32.2 °F 29.85 in WNW 5.8 mph 5.4 mph 91% 0 in 0.00 W/m2
04:14 34.5 °F 32.1 °F 29.85 in NW 6.9 mph 4.6 mph 91% 0 in 0.00 W/m2
04:19 34.4 °F 32 °F 29.86 in NW 8.1 mph 5 mph 91% 0 in 0.00 W/m2
04:24 34.2 °F 32.1 °F 29.86 in WNW 6.9 mph 4.3 mph 92% 0 in 0.00 W/m2
04:29 34 °F 31.9 °F 29.86 in WNW 4.6 mph 3.9 mph 92% 0 in 0.00 W/m2
04:34 33.9 °F 31.8 °F 29.86 in West 3.5 mph 3.5 mph 92% 0 in 0.00 W/m2
04:39 33.8 °F 31.7 °F 29.86 in WNW 5.8 mph 4.2 mph 92% 0 in 0.00 W/m2
04:44 33.7 °F 31.9 °F 29.87 in NNW 4.6 mph 3.5 mph 93% 0 in 0.00 W/m2
04:49 33.6 °F 31.8 °F 29.87 in NW 4.6 mph 4.1 mph 93% 0 in 0.00 W/m2
04:54 33.5 °F 31.7 °F 29.87 in WNW 5.8 mph 2.8 mph 93% 0 in 0.00 W/m2
04:59 33.4 °F 31.6 °F 29.87 in NW 5.8 mph 2.9 mph 93% 0 in 0.00 W/m2
05:04 33.3 °F 31.5 °F 29.87 in NW 5.8 mph 2.8 mph 93% 0 in 0.00 W/m2
05:09 33.2 °F 31.4 °F 29.88 in WNW 5 mph 3.8 mph 93% 0 in 0.00 W/m2
05:14 33.2 °F 31.7 °F 29.88 in NW 6.9 mph 3.8 mph 94% 0.01 in 0.00 W/m2
05:19 33.2 °F 31.7 °F 29.88 in NW 9.2 mph 3.5 mph 94% 0.01 in 0.00 W/m2
05:24 33.1 °F 31.6 °F 29.88 in NW 7 mph 1.7 mph 94% 0.01 in 0.00 W/m2
05:29 33.1 °F 31.6 °F 29.89 in WNW 5 mph 5.9 mph 94% 0.01 in 0.00 W/m2
05:34 33 °F 31.5 °F 29.89 in NW 6.9 mph 2 mph 94% 0.01 in 0.00 W/m2
05:39 33 °F 31.5 °F 29.89 in NW 4.6 mph 3.1 mph 94% 0.01 in 0.00 W/m2
05:44 33 °F 31.5 °F 29.89 in WNW 5 mph 4.8 mph 94% 0.01 in 0.00 W/m2
05:49 33 °F 31.5 °F 29.90 in NW 6.9 mph 3.5 mph 94% 0.01 in 0.00 W/m2
05:54 32.9 °F 31.4 °F 29.90 in WNW 8.1 mph 4.2 mph 94% 0.01 in 0.00 W/m2
05:59 32.9 °F 31.4 °F 29.90 in WNW 11 mph 3.2 mph 94% 0.01 in 0.00 W/m2
06:04 32.9 °F 31.4 °F 29.91 in WNW 9.2 mph 3.5 mph 94% 0.01 in 0.00 W/m2
06:09 32.9 °F 31.4 °F 29.91 in WNW 8 mph 2.7 mph 94% 0.01 in 0.00 W/m2
06:14 32.9 °F 31.4 °F 29.91 in West 4.6 mph 4.8 mph 94% 0 in 0.00 W/m2
06:19 32.8 °F 31.3 °F 29.91 in NW 4.6 mph 2.8 mph 94% 0 in 0.00 W/m2
06:24 32.8 °F 31.3 °F 29.91 in WNW 6 mph 4.8 mph 94% 0 in 0.00 W/m2
06:29 32.8 °F 31.3 °F 29.92 in WNW 4.6 mph 2.2 mph 94% 0 in 0.00 W/m2
06:34 32.8 °F 31.3 °F 29.92 in WNW 6.9 mph 3.8 mph 94% 0 in 0.00 W/m2
06:39 32.8 °F 31.3 °F 29.92 in WNW 5.8 mph 3.5 mph 94% 0 in 0.00 W/m2
06:44 32.8 °F 31.3 °F 29.92 in WNW 5.8 mph 3.9 mph 94% 0 in 0.00 W/m2
06:49 32.7 °F 31.2 °F 29.92 in WNW 4.6 mph 4.8 mph 94% 0 in 0.00 W/m2
06:54 32.7 °F 31.2 °F 29.93 in WNW 8.1 mph 1.9 mph 94% 0 in 0.00 W/m2
06:59 32.7 °F 31.2 °F 29.93 in WNW 5.8 mph 4.9 mph 94% 0 in 0.00 W/m2
07:04 32.6 °F 31.1 °F 29.93 in WNW 8.1 mph 5 mph 94% 0 in 0.00 W/m2
07:09 32.6 °F 31.1 °F 29.93 in WNW 9 mph 4.4 mph 94% 0 in 0.00 W/m2
07:14 32.6 °F 31.1 °F 29.93 in NW 6.9 mph 4.1 mph 94% 0 in 0.00 W/m2
07:19 32.6 °F 31.1 °F 29.94 in NW 7 mph 4.6 mph 94% 0 in 0.00 W/m2
07:24 32.6 °F 31.1 °F 29.94 in NW 8.1 mph 4.8 mph 94% 0.01 in 0.00 W/m2
07:29 32.5 °F 31 °F 29.94 in NNW 10.4 mph 5.4 mph 94% 0.01 in 7.00 W/m2
07:34 32.5 °F 31 °F 29.94 in NW 10.4 mph 6.6 mph 94% 0.01 in 11.00 W/m2
07:39 32.5 °F 31 °F 29.95 in NNW 8.1 mph 4.2 mph 94% 0.01 in 14.00 W/m2
07:44 32.5 °F 31 °F 29.95 in WNW 10.4 mph 4.8 mph 94% 0.01 in 16.00 W/m2
07:49 32.5 °F 31 °F 29.95 in NW 8 mph 4.4 mph 94% 0.01 in 16.00 W/m2
07:54 32.5 °F 31.2 °F 29.95 in NW 6.9 mph 3.3 mph 95% 0.01 in 16.00 W/m2
07:59 32.5 °F 31.2 °F 29.96 in NW 9 mph 3.7 mph 95% 0.01 in 14.00 W/m2
08:04 32.5 °F 31.2 °F 29.96 in WNW 9 mph 4.6 mph 95% 0.01 in 16.00 W/m2
08:09 32.4 °F 31.1 °F 29.96 in WNW 5.8 mph 4.4 mph 95% 0.01 in 19.00 W/m2
08:14 32.5 °F 31.2 °F 29.96 in NW 6.9 mph 4.5 mph 95% 0.01 in 23.00 W/m2
08:19 32.4 °F 30.9 °F 29.97 in NW 11.5 mph 6.3 mph 94% 0.01 in 30.00 W/m2
08:24 32.4 °F 30.9 °F 29.97 in WNW 10.4 mph 4.4 mph 94% 0 in 32.00 W/m2
08:29 32.4 °F 30.9 °F 29.97 in NW 11.5 mph 6.2 mph 94% 0 in 32.00 W/m2
08:34 32.4 °F 31.1 °F 29.98 in NW 10.4 mph 4 mph 95% 0 in 30.00 W/m2
08:39 32.4 °F 31.1 °F 29.98 in NNW 5.8 mph 5.4 mph 95% 0 in 33.00 W/m2
08:44 32.4 °F 31.1 °F 29.98 in NW 8.1 mph 4.8 mph 95% 0 in 37.00 W/m2
08:49 32.5 °F 31.2 °F 29.98 in NW 8.1 mph 5.2 mph 95% 0 in 46.00 W/m2
08:54 32.5 °F 31.2 °F 29.98 in WNW 8.1 mph 5.2 mph 95% 0 in 58.00 W/m2
08:59 32.5 °F 31.2 °F 29.98 in NNW 11.5 mph 6.3 mph 95% 0 in 76.00 W/m2
09:04 32.6 °F 31.3 °F 29.99 in NNW 10.4 mph 5.4 mph 95% 0 in 97.00 W/m2
09:09 32.6 °F 31.3 °F 29.99 in WNW 10.4 mph 6.3 mph 95% 0 in 100.00 W/m2
09:14 32.7 °F 31.4 °F 29.99 in NNW 10.4 mph 6.7 mph 95% 0 in 114.00 W/m2
09:19 32.8 °F 31.5 °F 30.00 in WNW 8.1 mph 6.5 mph 95% 0 in 141.00 W/m2
09:24 32.9 °F 31.4 °F 30.00 in WNW 12 mph 7.1 mph 94% 0 in 153.00 W/m2
09:29 33 °F 31.5 °F 30.00 in NW 10.4 mph 6.1 mph 94% 0 in 123.00 W/m2
09:34 33.1 °F 31.8 °F 30.00 in WNW 13.8 mph 6.3 mph 95% 0 in 135.00 W/m2
09:39 33.2 °F 31.9 °F 30.00 in NW 11.5 mph 7.7 mph 95% 0 in 246.00 W/m2
09:44 33.4 °F 32.1 °F 30.01 in NW 12.7 mph 8.7 mph 95% 0 in 216.00 W/m2
09:49 33.6 °F 32.1 °F 30.01 in NW 11.5 mph 7.4 mph 94% 0 in 234.00 W/m2
09:54 33.8 °F 32.5 °F 30.01 in WNW 11.5 mph 7.5 mph 95% 0 in 204.00 W/m2
09:59 34.1 °F 32.8 °F 30.01 in NNW 10.4 mph 6.8 mph 95% 0 in 218.00 W/m2
10:04 34.4 °F 33.1 °F 30.01 in NW 11.5 mph 4.8 mph 95% 0 in 246.00 W/m2
10:09 34.3 °F 33 °F 30.01 in NW 12.7 mph 6.6 mph 95% 0 in 144.00 W/m2
10:14 34.3 °F 32.8 °F 30.01 in NNW 11.5 mph 6.4 mph 94% 0 in 139.00 W/m2
10:19 34.5 °F 33 °F 30.02 in North 12 mph 7.6 mph 94% 0 in 199.00 W/m2
10:24 34.9 °F 33.3 °F 30.02 in NNW 11.5 mph 8.2 mph 94% 0 in 359.00 W/m2
10:29 35.6 °F 34 °F 30.01 in NNW 11.5 mph 8.2 mph 94% 0 in 371.00 W/m2
10:34 36 °F 34.4 °F 30.01 in NNW 16.1 mph 9.5 mph 94% 0 in 327.00 W/m2
10:39 35.9 °F 34.1 °F 30.02 in NNW 13.8 mph 7.6 mph 93% 0 in 350.00 W/m2
10:44 35.9 °F 33.8 °F 30.02 in NNW 15 mph 9.4 mph 92% 0 in 257.00 W/m2
10:49 35.9 °F 33.8 °F 30.02 in North 13.8 mph 10.1 mph 92% 0 in 221.00 W/m2
10:54 35.9 °F 33.8 °F 30.02 in NNW 13.8 mph 9.9 mph 92% 0 in 234.00 W/m2
10:59 36.1 °F 33.7 °F 30.02 in NNW 12.7 mph 10.2 mph 91% 0 in 174.00 W/m2
11:04 36.1 °F 33.7 °F 30.02 in NNW 11.5 mph 6.9 mph 91% 0 in 153.00 W/m2
11:09 36.1 °F 33.7 °F 30.02 in NNW 11.5 mph 10.4 mph 91% 0 in 144.00 W/m2
11:14 35.9 °F 33.5 °F 30.02 in NNW 12 mph 9.3 mph 91% 0 in 174.00 W/m2
11:19 35.9 °F 33.5 °F 30.02 in NNW 15 mph 9.2 mph 91% 0 in 165.00 W/m2
11:24 35.8 °F 33.4 °F 30.02 in NNW 12 mph 9.6 mph 91% 0 in 197.00 W/m2
11:29 35.7 °F 33.1 °F 30.02 in NNW 15 mph 12 mph 90% 0 in 144.00 W/m2
11:34 35.6 °F 32.7 °F 30.02 in NNW 12.7 mph 10.6 mph 89% 0 in 207.00 W/m2
11:39 35.7 °F 32.8 °F 30.02 in North 13.8 mph 10.1 mph 89% 0 in 211.00 W/m2
11:44 35.9 °F 33.3 °F 30.02 in NNW 11.5 mph 6.9 mph 90% 0 in 253.00 W/m2
11:49 36.1 °F 33.2 °F 30.02 in NNW 18.4 mph 11.2 mph 89% 0 in 206.00 W/m2
11:54 36.2 °F 33.3 °F 30.02 in NNW 16.1 mph 9.8 mph 89% 0 in 181.00 W/m2
11:59 36 °F 32.8 °F 30.02 in North 18.4 mph 11.3 mph 88% 0 in 128.00 W/m2
12:04 35.8 °F 32.9 °F 30.03 in North 13.8 mph 10.5 mph 89% 0 in 134.00 W/m2
12:09 35.8 °F 32.6 °F 30.03 in NW 18.4 mph 10.3 mph 88% 0 in 125.00 W/m2
12:14 35.7 °F 32.5 °F 30.04 in NNW 17 mph 12.3 mph 88% 0 in 148.00 W/m2
12:19 35.8 °F 32.6 °F 30.04 in NW 13.8 mph 9.3 mph 88% 0 in 104.00 W/m2
12:24 35.8 °F 32.6 °F 30.04 in NW 15 mph 13 mph 88% 0 in 155.00 W/m2
12:29 35.8 °F 32.3 °F 30.04 in North 16.1 mph 12.9 mph 87% 0 in 144.00 W/m2
12:34 35.8 °F 32.3 °F 30.04 in North 15 mph 10.5 mph 87% 0 in 199.00 W/m2
12:39 36.1 °F 32.9 °F 30.04 in NNE 13.8 mph 13.3 mph 88% 0 in 167.00 W/m2
12:44 36.1 °F 32.6 °F 30.04 in North 15 mph 9.9 mph 87% 0 in 121.00 W/m2
12:49 36.1 °F 32.6 °F 30.04 in WNW 11.5 mph 8.9 mph 87% 0 in 102.00 W/m2
12:54 35.8 °F 32 °F 30.04 in NNW 13.8 mph 10 mph 86% 0 in 107.00 W/m2
12:59 35.8 °F 32.3 °F 30.04 in NNW 15 mph 11.3 mph 87% 0 in 120.00 W/m2
13:04 36 °F 32.2 °F 30.04 in North 16.1 mph 11.6 mph 86% 0 in 139.00 W/m2
13:09 36.1 °F 32.3 °F 30.04 in NNW 11.5 mph 8.5 mph 86% 0 in 163.00 W/m2
13:14 36.2 °F 32.4 °F 30.04 in North 12.7 mph 8.2 mph 86% 0 in 155.00 W/m2
13:19 36.1 °F 32 °F 30.05 in NNW 17.3 mph 11.8 mph 85% 0 in 130.00 W/m2
13:24 36 °F 31.9 °F 30.05 in NNW 17.3 mph 11.2 mph 85% 0 in 169.00 W/m2
13:29 36 °F 31.9 °F 30.05 in North 13.8 mph 10.9 mph 85% 0 in 137.00 W/m2
13:34 35.9 °F 31.8 °F 30.05 in North 15 mph 10.8 mph 85% 0 in 216.00 W/m2
13:39 36 °F 31.9 °F 30.05 in North 19.6 mph 11.8 mph 85% 0 in 137.00 W/m2
13:44 36.2 °F 32.7 °F 30.05 in NNW 10 mph 9.9 mph 87% 0 in 148.00 W/m2
13:49 35.9 °F 31.8 °F 30.05 in North 13.8 mph 9.2 mph 85% 0 in 90.00 W/m2
13:54 35.7 °F 31.6 °F 30.06 in NNW 13.8 mph 11.2 mph 85% 0 in 77.00 W/m2
13:59 35.6 °F 31.5 °F 30.06 in NNW 15 mph 10.8 mph 85% 0 in 60.00 W/m2
14:04 35.4 °F 31.3 °F 30.06 in NNW 11.5 mph 9.1 mph 85% 0 in 83.00 W/m2
14:09 35.3 °F 31.2 °F 30.07 in NNW 15 mph 9 mph 85% 0 in 93.00 W/m2
14:14 35.1 °F 31 °F 30.07 in NNW 15 mph 12.9 mph 85% 0 in 63.00 W/m2
14:19 35.1 °F 31.3 °F 30.07 in NNW 10.4 mph 10.8 mph 86% 0 in 79.00 W/m2
14:24 35.2 °F 31.4 °F 30.07 in North 12.7 mph 9.3 mph 86% 0 in 83.00 W/m2
14:29 35.3 °F 31.8 °F 30.08 in North 12.7 mph 8 mph 87% 0 in 79.00 W/m2
14:34 35.2 °F 31.4 °F 30.08 in NNW 15 mph 11.5 mph 86% 0 in 121.00 W/m2
14:39 35.1 °F 31.3 °F 30.08 in NNW 11.5 mph 7.3 mph 86% 0 in 97.00 W/m2
14:44 35.1 °F 31.3 °F 30.08 in NNW 14 mph 11 mph 86% 0 in 91.00 W/m2
14:49 35 °F 31.2 °F 30.09 in North 16.1 mph 13.2 mph 86% 0 in 84.00 W/m2
14:54 35 °F 30.9 °F 30.09 in North 15 mph 10.7 mph 85% 0 in 81.00 W/m2
14:59 34.8 °F 30.5 °F 30.09 in NNW 17.3 mph 10.3 mph 84% 0 in 67.00 W/m2
15:04 34.8 °F 30.8 °F 30.09 in NNW 12.7 mph 10.1 mph 85% 0 in 49.00 W/m2
15:09 34.7 °F 30.7 °F 30.09 in North 13.8 mph 9 mph 85% 0 in 56.00 W/m2
15:14 34.7 °F 30.9 °F 30.10 in NNW 15 mph 9.9 mph 86% 0 in 53.00 W/m2
15:19 34.5 °F 30.7 °F 30.10 in NNW 13.8 mph 10.8 mph 86% 0 in 62.00 W/m2
15:24 34.3 °F 30.5 °F 30.10 in NNW 13 mph 8.5 mph 86% 0 in 62.00 W/m2
15:29 34.1 °F 30.4 °F 30.11 in NNW 12.7 mph 7.7 mph 86% 0 in 47.00 W/m2
15:34 34.1 °F 30.6 °F 30.11 in NW 10.4 mph 8.2 mph 87% 0 in 28.00 W/m2
15:39 33.9 °F 30.4 °F 30.11 in NNW 11.5 mph 8.5 mph 87% 0 in 32.00 W/m2
15:44 33.7 °F 30.2 °F 30.11 in NNW 12 mph 8.4 mph 87% 0 in 42.00 W/m2
15:49 33.6 °F 30.1 °F 30.11 in NNW 11.5 mph 8.3 mph 87% 0 in 32.00 W/m2
15:54 33.6 °F 30.4 °F 30.11 in NNW 9.2 mph 6.6 mph 88% 0 in 19.00 W/m2
15:59 33.5 °F 30.3 °F 30.12 in NNW 9 mph 6.7 mph 88% 0 in 14.00 W/m2
16:04 33.4 °F 30.2 °F 30.11 in North 8.1 mph 9.3 mph 88% 0 in 11.00 W/m2
16:09 33.3 °F 30.1 °F 30.12 in NW 9.2 mph 5.2 mph 88% 0 in 9.00 W/m2
16:14 33.2 °F 30 °F 30.12 in NW 11.5 mph 7.1 mph 88% 0 in 7.00 W/m2
16:19 33.3 °F 30.1 °F 30.12 in NNW 10.4 mph 7.3 mph 88% 0 in 0.00 W/m2
16:24 33.2 °F 30 °F 30.12 in NNW 5.8 mph 3.2 mph 88% 0 in 0.00 W/m2
16:29 33.1 °F 30.2 °F 30.13 in NW 6.9 mph 5 mph 89% 0 in 0.00 W/m2
16:34 33 °F 29.8 °F 30.13 in NW 8 mph 5.9 mph 88% 0 in 0.00 W/m2
16:39 32.9 °F 29.7 °F 30.13 in NNW 10.4 mph 5.2 mph 88% 0 in 0.00 W/m2
16:44 32.9 °F 29.7 °F 30.13 in NW 7 mph 6.2 mph 88% 0 in 0.00 W/m2
16:49 32.9 °F 29.7 °F 30.14 in WNW 11.5 mph 4.9 mph 88% 0 in 0.00 W/m2
16:54 33 °F 29.8 °F 30.14 in NNW 6.9 mph 5.5 mph 88% 0 in 0.00 W/m2
16:59 33 °F 29.8 °F 30.14 in NNW 10.4 mph 6.3 mph 88% 0 in 0.00 W/m2
17:04 33.1 °F 29.7 °F 30.15 in NNW 8.1 mph 8 mph 87% 0 in 0.00 W/m2
17:09 33.1 °F 29.4 °F 30.15 in North 11.5 mph 9.5 mph 86% 0 in 0.00 W/m2
17:14 33.1 °F 29.4 °F 30.15 in NNW 15 mph 9.3 mph 86% 0 in 0.00 W/m2
17:19 33.1 °F 29.4 °F 30.15 in NNW 11.5 mph 7.9 mph 86% 0 in 0.00 W/m2
17:24 33 °F 29.3 °F 30.15 in NW 11.5 mph 7.3 mph 86% 0 in 0.00 W/m2
17:29 33 °F 29.3 °F 30.16 in NNW 10.4 mph 8.4 mph 86% 0 in 0.00 W/m2
17:34 33 °F 29.3 °F 30.16 in NNW 8.1 mph 5.6 mph 86% 0 in 0.00 W/m2
17:39 33 °F 29.6 °F 30.16 in NNW 12.7 mph 7.7 mph 87% 0 in 0.00 W/m2
17:44 32.9 °F 29.2 °F 30.16 in North 9.2 mph 5.9 mph 86% 0 in 0.00 W/m2
17:49 32.8 °F 29.1 °F 30.16 in North 8.1 mph 5.2 mph 86% 0 in 0.00 W/m2
17:54 32.8 °F 29.1 °F 30.16 in NW 7 mph 5.3 mph 86% 0 in 0.00 W/m2
17:59 32.8 °F 29.1 °F 30.16 in NNW 7 mph 7.3 mph 86% 0 in 0.00 W/m2
18:04 32.6 °F 28.9 °F 30.17 in NW 12.7 mph 4.8 mph 86% 0 in 0.00 W/m2
18:10 32.5 °F 28.5 °F 30.17 in North 11.5 mph 7 mph 85% 0 in 0.00 W/m2
18:14 32.4 °F 28.4 °F 30.17 in NW 8.1 mph 5.3 mph 85% 0 in 0.00 W/m2
18:19 32.3 °F 28.3 °F 30.17 in NW 8 mph 6.3 mph 85% 0 in 0.00 W/m2
18:24 32.2 °F 28.2 °F 30.17 in NNW 8.1 mph 6.2 mph 85% 0 in 0.00 W/m2
18:29 32.2 °F 28.2 °F 30.18 in NNW 8.1 mph 4.9 mph 85% 0 in 0.00 W/m2
18:35 32.2 °F 28.2 °F 30.18 in NW 8.1 mph 4.4 mph 85% 0 in 0.00 W/m2
18:39 32.2 °F 28.5 °F 30.18 in NNW 11.5 mph 5 mph 86% 0 in 0.00 W/m2
18:45 32.1 °F 28.1 °F 30.18 in NNW 10.4 mph 6.5 mph 85% 0 in 0.00 W/m2
18:49 32 °F 28 °F 30.18 in WNW 10.4 mph 5.7 mph 85% 0 in 0.00 W/m2
18:54 31.8 °F 27.8 °F 30.18 in NNW 10 mph 5.8 mph 85% 0 in 0.00 W/m2
18:59 31.6 °F 27.6 °F 30.18 in North 8.1 mph 5.2 mph 85% 0 in 0.00 W/m2
19:04 31.6 °F 27.6 °F 30.18 in NNW 9.2 mph 6 mph 85% 0 in 0.00 W/m2
19:10 31.5 °F 27.5 °F 30.18 in NW 9.2 mph 6.3 mph 85% 0 in 0.00 W/m2
19:14 31.4 °F 27.4 °F 30.19 in NW 9.2 mph 5.7 mph 85% 0 in 0.00 W/m2
19:19 31.4 °F 27.4 °F 30.18 in NW 8.1 mph 5.4 mph 85% 0 in 0.00 W/m2
19:24 31.4 °F 27.4 °F 30.19 in North 9.2 mph 5.6 mph 85% 0 in 0.00 W/m2
19:29 31.3 °F 27.3 °F 30.19 in NNW 10.4 mph 4.3 mph 85% 0 in 0.00 W/m2
19:34 31.2 °F 27.2 °F 30.19 in WNW 9.2 mph 7 mph 85% 0 in 0.00 W/m2
19:39 31.2 °F 27.2 °F 30.19 in NW 9.2 mph 5.3 mph 85% 0 in 0.00 W/m2
19:44 31.2 °F 27.2 °F 30.19 in NW 9.2 mph 6 mph 85% 0 in 0.00 W/m2
19:49 31.1 °F 27.1 °F 30.19 in NNW 9.2 mph 5.8 mph 85% 0 in 0.00 W/m2
19:54 31 °F 27 °F 30.20 in NW 9 mph 6.7 mph 85% 0 in 0.00 W/m2
19:59 30.9 °F 26.9 °F 30.20 in WNW 5.8 mph 5.1 mph 85% 0 in 0.00 W/m2
20:04 30.8 °F 26.8 °F 30.20 in NW 9.2 mph 3 mph 85% 0 in 0.00 W/m2
20:09 30.7 °F 26.7 °F 30.20 in NW 9.2 mph 5.5 mph 85% 0 in 0.00 W/m2
20:14 30.5 °F 26.5 °F 30.20 in WNW 8.1 mph 4.4 mph 85% 0 in 0.00 W/m2
20:19 30.4 °F 26.4 °F 30.20 in NW 8.1 mph 3.3 mph 85% 0 in 0.00 W/m2
20:24 30.2 °F 26.2 °F 30.20 in NNW 9.2 mph 3.7 mph 85% 0 in 0.00 W/m2
20:29 30.1 °F 26.4 °F 30.20 in WNW 8.1 mph 5.3 mph 86% 0 in 0.00 W/m2
20:34 30.1 °F 26.4 °F 30.20 in WNW 9 mph 4.5 mph 86% 0 in 0.00 W/m2
20:39 30.1 °F 26.4 °F 30.20 in NW 9.2 mph 4.1 mph 86% 0 in 0.00 W/m2
20:44 30.1 °F 26.4 °F 30.20 in NW 4.6 mph 4.3 mph 86% 0 in 0.00 W/m2
20:49 30.1 °F 26.4 °F 30.20 in NNW 8.1 mph 5.6 mph 86% 0 in 0.00 W/m2
20:54 30 °F 26.6 °F 30.20 in NW 7 mph 5.8 mph 87% 0 in 0.00 W/m2
20:59 30 °F 26.6 °F 30.20 in NNW 6.9 mph 6.3 mph 87% 0 in 0.00 W/m2
21:04 30 °F 26.3 °F 30.20 in NW 10.4 mph 4.8 mph 86% 0 in 0.00 W/m2
21:09 30 °F 26.3 °F 30.20 in NNW 8 mph 5.6 mph 86% 0 in 0.00 W/m2
21:14 30 °F 26.3 °F 30.21 in NW 9.2 mph 5.3 mph 86% 0 in 0.00 W/m2
21:20 29.9 °F 26.2 °F 30.21 in NNW 5.8 mph 3 mph 86% 0 in 0.00 W/m2
21:24 29.9 °F 26.2 °F 30.20 in NW 11.5 mph 6.8 mph 86% 0 in 0.00 W/m2
21:29 29.8 °F 26.1 °F 30.21 in NNW 6 mph 5 mph 86% 0 in 0.00 W/m2
21:34 29.8 °F 26.4 °F 30.21 in NNW 8.1 mph 4.7 mph 87% 0 in 0.00 W/m2
21:39 29.8 °F 26.4 °F 30.21 in WNW 6.9 mph 5.5 mph 87% 0 in 0.00 W/m2
21:44 29.7 °F 26.3 °F 30.21 in NW 8.1 mph 5.2 mph 87% 0 in 0.00 W/m2
21:49 29.7 °F 26.3 °F 30.21 in NNW 8.1 mph 5.9 mph 87% 0 in 0.00 W/m2
21:54 29.7 °F 26.3 °F 30.21 in NNW 9.2 mph 6.4 mph 87% 0 in 0.00 W/m2
21:59 29.7 °F 26.3 °F 30.21 in NW 8.1 mph 5.3 mph 87% 0 in 0.00 W/m2
22:04 29.6 °F 26.2 °F 30.21 in WNW 9.2 mph 6.3 mph 87% 0 in 0.00 W/m2
22:09 29.6 °F 26.2 °F 30.21 in NNW 6.9 mph 4 mph 87% 0 in 0.00 W/m2
22:14 29.6 °F 26.2 °F 30.21 in NNW 11.5 mph 6.5 mph 87% 0 in 0.00 W/m2
22:19 29.7 °F 26.3 °F 30.22 in NW 9.2 mph 5.8 mph 87% 0 in 0.00 W/m2
22:24 29.7 °F 26.3 °F 30.22 in NNW 8.1 mph 4.7 mph 87% 0 in 0.00 W/m2
22:29 29.8 °F 26.4 °F 30.22 in NW 5 mph 4.1 mph 87% 0 in 0.00 W/m2
22:35 29.8 °F 26.4 °F 30.22 in WNW 7 mph 4.8 mph 87% 0 in 0.00 W/m2
22:40 29.9 °F 26.5 °F 30.22 in WNW 6.9 mph 4.7 mph 87% 0 in 0.00 W/m2
22:44 29.9 °F 26.5 °F 30.22 in NW 9.2 mph 5.3 mph 87% 0 in 0.00 W/m2
22:49 30 °F 26.6 °F 30.22 in NNW 9.2 mph 5.1 mph 87% 0 in 0.00 W/m2
22:54 30 °F 26.6 °F 30.22 in NW 8.1 mph 6.2 mph 87% 0 in 0.00 W/m2
22:59 30 °F 26.6 °F 30.22 in NW 8.1 mph 5.1 mph 87% 0 in 0.00 W/m2
23:04 30 °F 26.6 °F 30.22 in NW 7 mph 4.5 mph 87% 0 in 0.00 W/m2
23:09 30 °F 26.6 °F 30.22 in West 8.1 mph 4.9 mph 87% 0 in 0.00 W/m2
23:14 30 °F 26.6 °F 30.22 in North 8.1 mph 6.3 mph 87% 0 in 0.00 W/m2
23:19 30 °F 26.6 °F 30.22 in NW 7 mph 6.1 mph 87% 0 in 0.00 W/m2
23:24 30 °F 26.3 °F 30.23 in NNW 8.1 mph 4.4 mph 86% 0 in 0.00 W/m2
23:29 30.1 °F 26.7 °F 30.23 in NW 6 mph 3.7 mph 87% 0 in 0.00 W/m2
23:34 30.1 °F 26.7 °F 30.23 in NNW 6.9 mph 5 mph 87% 0 in 0.00 W/m2
23:39 30 °F 26.3 °F 30.23 in NNW 10.4 mph 6.1 mph 86% 0 in 0.00 W/m2
23:44 29.9 °F 26.2 °F 30.22 in WNW 8.1 mph 6.3 mph 86% 0 in 0.00 W/m2
23:49 29.9 °F 26.2 °F 30.23 in NNW 5.8 mph 4.8 mph 86% 0 in 0.00 W/m2
23:54 29.9 °F 26.2 °F 30.23 in NNW 8.1 mph 5.8 mph 86% 0 in 0.00 W/m2
23:59 29.9 °F 26.2 °F 30.23 in NNW 11.5 mph 9 mph 86% 0 in 0.00 W/m2
Bourbonnais, Illinois, USA
Compliments of Weather Underground - 4 mb